{"data":{"norad_id":68847,"intl_designator":"2026-094J","name":"STARLINK-37465","alt_names":[],"object_type":"PAYLOAD","status":"ACTIVE","operator":null,"country":"US","launch_date":"2026-04-26","launch_site_code":"AFWTR","launch_vehicle":null,"mission":null,"orbit_class":"UNKNOWN","rcs_meters":null,"size_class":null,"mass_kg":null,"dimensions":null,"purposes":["comms"],"wikipedia_slug":null,"has_3d_model":false,"image_url":null,"decayed_at":null,"tle_current":{"epoch":"2026-05-25T00:03:00.569088Z","epoch_age_seconds":70987,"freshness":"FRESH","line1":"1 68847U 26094J   26145.00208992  .00051422  00000+0  93951-3 0  9995","line2":"2 68847  97.2851 159.5970 0001392 100.8167 259.3241 15.49233866  4480","mean_motion":15.49233866,"eccentricity":0.0001392,"inclination_deg":97.2851,"raan_deg":159.597,"arg_perigee_deg":100.8167,"mean_anomaly_deg":259.3241,"bstar":0.00093951,"rev_number":448,"period_min":92.949168721567,"perigee_km":418.01987842036,"apogee_km":419.91219190535,"semimajor_km":6797.1030351629,"source":"CELESTRAK","updated_at":"2026-05-25T13:38:22.047269Z"}}}